Wind_Speed
22 22 22 17 23 23 18 11 8 7 3 5 7 5 8 12 15 14 13 13 14 15 14 14 14 15 16 16 16 14 13 12 13 12 12 11 11 8 6 7 8 11 13 12 11 12 13 13 13
16 16 16 20 20 20 18 16 11 7 7 5 6 1 6 9 12 12 12 13 13 15 13 13 12 10 10 11 13 12 11 11 12 11 11 10 9 6 5 5 8 9 11 11 10 9 10 12 12
10 17 17 25 16 19 22 16 20 12 6 11 4 7 7 6 10 10 12 11 12 13 13 12 11 11 10 9 9 8 8 9 9 10 8 9 9 7 7 8 10 9 10 10 10 9 9 9 10
27 24 30 24 18 22 20 15 12 16 14 12 8 5 6 4 7 10 11 10 11 11 11 12 11 11 11 10 9 9 8 8 9 9 8 9 7 7 8 11 10 10 10 10 10 9 9 8 9
18 32 27 30 25 18 21 18 15 16 17 11 10 4 2 3 5 10 9 9 9 10 11 11 11 10 11 11 11 10 9 9 9 8 7 7 6 6 7 9 8 8 8 9 8 9 8 8 9
24 30 24 25 25 24 16 20 19 11 14 12 10 7 3 1 2 4 7 8 6 8 9 10 10 10 10 11 10 9 9 9 8 7 6 6 5 4 6 7 7 6 6 6 6 6 6 5 7
21 29 24 24 22 18 20 19 20 18 16 15 12 11 7 3 1 1 3 5 5 5 8 8 9 10 9 7 6 6 7 6 6 5 4 4 4 4 4 5 6 5 4 5 6 6 6 6 6
26 19 14 20 18 17 17 15 15 14 16 14 14 13 11 6 3 1 3 2 2 5 5 7 8 8 8 7 5 5 6 5 4 3 3 3 1 1 1 3 3 3 4 5 6 7 6 7 7
17 9 8 13 19 20 18 15 12 14 19 19 15 12 10 8 6 3 3 2 4 3 5 6 8 7 7 5 4 4 4 4 4 4 3 1 3 3 1 3 4 3 3 5 7 7 7 7 6
14 15 8 9 14 16 14 14 15 20 18 17 17 15 11 7 4 3 3 2 4 6 5 6 7 6 6 4 3 3 2 2 3 5 6 3 4 4 3 4 6 7 6 4 4 5 7 8 6
4 15 13 6 11 11 11 18 23 20 22 18 19 19 16 10 5 2 4 4 5 5 6 6 7 5 4 4 4 3 2 1 3 3 4 5 4 3 2 4 5 6 8 7 8 9 12 12 11
5 15 16 10 11 13 13 13 14 17 18 19 17 19 18 13 10 6 1 3 5 6 8 9 7 8 7 6 3 5 6 3 2 4 3 2 4 3 4 4 4 7 8 8 10 11 11 18 11
3 9 14 11 9 12 14 17 19 15 16 19 17 17 17 14 12 11 6 3 5 6 7 10 8 10 9 7 5 4 7 7 8 8 6 3 5 4 7 8 4 6 9 9 9 11 13 13 14
14 13 13 17 6 7 16 13 10 16 17 17 17 13 15 16 15 12 11 7 3 6 7 7 8 8 8 6 7 6 5 6 10 6 5 5 4 7 6 7 8 10 11 5 4 9 10 12 14
11 3 4 16 8 13 13 12 10 12 16 16 18 13 13 16 19 16 15 11 5 2 5 6 5 5 5 6 7 4 4 4 5 5 4 5 6 6 7 8 9 13 14 10 8 9 11 11 8
7 3 11 15 5 11 13 9 9 18 12 12 16 15 12 16 20 21 19 15 10 4 2 2 4 3 5 5 6 6 5 8 4 6 7 8 8 6 7 7 10 13 13 12 10 11 13 11 5
7 11 18 14 16 10 17 15 14 12 13 13 16 16 13 14 16 18 21 19 15 12 3 2 6 5 4 4 4 5 6 9 10 9 8 12 16 12 16 9 12 13 14 16 14 12 13 12 8
10 17 18 24 11 5 15 22 23 14 10 10 13 16 18 15 11 14 16 17 18 17 10 6 5 3 4 3 5 6 5 8 10 12 6 8 14 14 13 12 12 11 12 14 15 14 14 14 11
6 11 16 21 7 7 15 10 17 19 10 8 8 8 13 15 11 9 9 10 12 13 14 12 6 3 3 4 4 2 3 4 5 7 9 11 13 5 6 9 10 12 13 11 12 11 10 12 10
7 14 13 28 10 15 20 18 16 21 18 27 17 11 5 12 10 6 9 10 9 9 11 10 10 11 10 6 4 4 3 2 4 5 7 10 15 11 9 10 10 11 10 11 11 11 9 9 8
16 7 3 23 15 23 20 4 24 31 19 12 23 25 14 2 5 7 3 6 8 9 7 7 9 9 10 9 8 5 3 4 3 6 6 7 9 9 7 5 5 7 9 10 12 12 9 7 6
14 11 9 22 26 26 14 17 20 23 23 26 32 26 13 1 0 4 9 4 7 8 8 9 7 7 7 7 7 5 5 6 7 9 9 10 11 11 11 10 9 8 10 10 10 9 8 7 6
15 20 22 23 22 27 14 18 17 21 29 25 27 40 6 5 4 2 2 7 5 9 10 9 7 7 8 8 8 8 9 10 11 9 9 10 12 12 12 11 11 12 11 10 11 10 9 7 6
19 20 22 30 23 20 9 16 21 22 29 27 20 7 8 7 1 4 4 4 6 8 10 11 12 10 9 9 9 10 11 13 13 14 13 11 11 13 12 12 14 14 12 12 15 11 9 8 9
17 16 18 19 16 9 8 13 19 24 23 27 40 15 6 1 0 5 2 3 5 9 14 14 15 14 13 11 10 10 8 11 10 9 10 11 5 12 15 16 15 14 15 16 14 14 10 9 11
16 14 14 11 8 7 14 19 24 24 24 30 31 22 7 3 9 2 8 2 4 8 15 13 16 16 13 5 3 7 9 10 10 9 5 10 13 11 13 10 12 14 16 16 18 11 11 12 14
11 15 7 13 14 19 12 18 20 24 20 27 36 19 17 11 6 8 7 6 3 7 12 13 15 17 14 4 3 6 9 10 12 11 10 11 9 9 13 12 13 12 14 13 12 11 10 14 16
13 10 15 12 13 12 14 13 19 26 24 22 24 28 15 6 20 24 1 3 2 5 10 10 11 15 15 10 8 7 8 9 11 12 15 16 14 14 14 13 13 12 14 15 12 13 12 12 12
6 11 17 16 16 17 10 17 24 25 23 17 8 16 24 9 22 4 2 8 5 3 7 7 10 12 12 10 10 11 12 15 19 20 21 25 22 19 17 17 15 13 14 15 15 15 14 15 15
17 8 15 22 16 19 11 25 30 21 29 20 16 19 1 11 18 11 2 9 6 0 6 5 8 10 14 12 11 14 15 11 10 17 14 15 15 16 14 17 18 17 13 13 13 13 15 16 17
Wind_Direction
68 60 57 50 37 30 26 47 64 11 9 72 64 44 56 62 68 70 64 72 80 88 98 108 115 115 117 121 118 118 119 117 107 100 96 93 94 97 89 84 78 70 68 66 60 47 43 46 44
67 64 61 53 29 14 22 42 42 358 334 87 113 305 100 66 71 75 78 74 81 86 95 105 116 121 116 112 113 123 124 108 100 96 94 98 91 91 94 87 71 63 61 57 55 51 44 45 47
88 88 58 54 39 35 34 28 24 34 293 24 62 105 109 99 90 81 86 91 84 86 93 100 108 113 107 104 113 120 114 107 111 106 106 97 95 98 96 83 74 69 62 57 55 44 41 36 46
21 57 50 52 29 29 34 20 5 26 9 7 17 65 116 123 104 96 83 87 96 96 97 98 98 99 102 106 110 105 98 105 107 107 111 102 109 106 97 82 78 72 68 62 62 54 37 30 29
14 51 46 16 17 27 22 37 20 24 24 10 13 10 111 101 105 112 90 87 100 106 105 102 102 101 101 99 94 97 99 95 92 98 101 109 110 106 88 82 79 72 65 60 52 54 45 33 30
49 49 52 23 23 16 18 30 29 52 26 30 16 10 351 141 94 109 119 104 103 119 120 114 107 110 106 99 93 87 86 86 89 86 97 106 98 100 98 88 72 62 55 51 53 51 45 27 11
56 32 61 8 25 21 22 20 17 25 60 38 32 27 15 351 100 60 98 107 107 113 130 127 123 113 112 99 93 91 89 88 82 85 89 81 98 99 89 85 77 51 42 38 36 32 27 13 7
22 40 47 350 16 29 39 35 22 22 42 50 39 40 36 18 18 274 130 176 150 128 131 137 137 128 117 115 112 106 100 92 89 84 62 49 68 120 123 98 65 15 350 357 13 12 8 8 356
358 25 342 3 29 18 30 31 28 46 30 36 30 31 30 26 32 2 105 216 149 157 154 157 145 145 141 147 145 122 98 89 70 48 49 357 295 267 321 312 340 341 348 13 10 3 351 349 354
344 338 340 327 26 8 30 41 27 40 44 37 34 24 16 12 25 352 7 163 208 185 190 167 143 162 175 156 135 123 104 103 100 53 33 355 356 304 276 301 324 325 322 346 359 14 1 348 336
326 308 341 357 355 1 10 27 26 27 35 28 27 25 19 10 359 76 294 161 217 199 164 207 164 176 195 175 197 197 213 172 40 32 8 6 346 341 266 302 297 305 314 328 334 342 353 333 295
40 324 334 15 356 7 14 45 41 26 25 24 25 24 22 23 4 11 357 297 246 192 186 210 188 197 205 230 191 223 233 259 307 283 282 315 343 312 329 315 287 281 287 305 315 329 329 325 327
191 299 306 334 353 18 16 12 22 34 36 26 23 27 24 30 20 12 18 298 275 244 218 206 202 220 220 204 215 235 244 243 244 253 273 279 313 311 332 318 319 295 277 281 306 324 332 341 336
295 265 304 311 357 350 19 33 13 16 36 39 24 26 29 32 32 21 27 8 328 229 228 236 210 217 232 232 226 222 243 248 242 261 299 303 313 309 316 314 310 293 285 288 317 321 317 337 333
243 293 239 293 347 316 2 19 18 14 32 42 31 17 30 39 40 32 29 28 6 297 187 242 241 232 244 243 258 254 256 273 271 280 271 257 273 282 283 284 294 290 295 311 341 306 307 326 323
154 219 240 290 344 357 355 345 352 3 21 28 31 21 28 40 41 40 39 34 33 16 286 176 256 224 245 266 273 288 286 275 268 274 272 289 305 337 247 276 294 299 302 311 317 310 299 307 305
152 236 253 216 211 207 352 335 314 351 9 18 34 27 25 30 41 45 43 44 44 45 92 209 213 220 241 268 279 276 274 288 293 300 321 305 331 283 308 311 308 308 311 300 304 299 297 296 284
195 235 247 267 186 27 327 324 302 338 357 22 37 20 22 13 28 39 47 46 46 54 55 75 126 151 175 197 210 234 283 304 335 339 333 302 280 292 312 316 315 325 308 309 314 308 291 290 286
240 305 343 341 108 182 298 304 295 325 338 328 1 7 7 16 10 35 52 53 54 54 59 63 77 113 190 213 208 248 303 339 6 6 352 308 290 28 322 327 332 335 338 338 328 334 305 289 283
198 258 302 291 312 326 301 324 311 311 324 344 327 300 335 353 12 36 65 45 41 48 51 59 68 69 77 93 104 102 113 53 4 355 9 13 20 3 14 7 2 344 344 350 345 353 337 315 297
186 188 243 313 317 278 294 357 303 302 329 6 310 304 237 307 6 343 43 30 15 22 31 32 41 46 52 58 65 64 65 7 352 347 344 343 330 343 359 355 342 344 343 353 354 347 337 335 316
224 164 234 265 263 267 303 302 295 312 321 317 286 304 290 63 352 37 311 340 5 6 17 15 11 8 13 17 22 9 328 316 305 300 298 302 311 327 331 335 338 348 351 345 330 324 325 321 314
232 199 231 241 244 245 265 273 289 291 297 277 305 321 301 246 292 42 338 334 34 31 14 21 9 3 342 333 333 326 328 319 302 306 327 344 337 329 331 335 340 343 338 322 314 313 308 298 293
251 249 240 234 250 242 301 259 265 273 287 301 294 310 243 221 183 274 69 300 50 37 19 16 17 4 344 324 309 309 315 311 319 345 346 337 335 327 329 337 344 349 337 318 292 288 292 299 306
272 256 254 244 251 270 17 317 279 282 289 301 317 281 134 126 159 257 304 303 14 57 41 19 7 349 330 315 298 300 304 317 329 336 341 321 336 328 335 340 343 339 337 348 319 280 283 293 303
251 247 247 246 255 285 293 298 303 311 298 298 303 286 249 245 260 216 281 348 351 27 32 14 3 360 352 347 302 303 307 309 330 346 20 339 327 338 322 336 343 349 352 354 355 307 285 296 300
243 247 237 230 230 256 253 294 303 311 291 302 299 267 223 243 194 190 284 319 12 15 20 4 7 10 1 348 325 327 325 333 330 342 325 307 306 315 299 325 345 350 348 2 343 352 313 294 295
246 237 209 214 269 301 255 289 301 292 301 294 282 284 173 316 329 319 87 58 46 348 19 351 4 3 354 344 314 308 309 314 306 305 305 304 306 287 289 316 335 332 335 342 343 336 319 307 300
293 234 241 215 219 258 253 304 298 293 301 318 297 284 294 302 310 37 297 135 122 295 343 343 346 345 328 320 306 300 298 304 312 315 301 294 290 292 289 299 301 308 323 335 338 333 325 320 319
324 289 214 230 232 234 245 305 284 284 307 306 308 290 158 296 307 338 243 86 125 16 315 346 333 323 317 319 301 292 289 304 307 321 342 339 325 289 285 281 275 274 292 314 332 334 327 318 317
Height
5906 5906 5903 5905 5900 5894 5894 5896 5895 5893 5893 5896 5899 5897 5894 5896 5895 5897 5896 5895 5895 5895 5896 5897 5899 5900 5902 5903 5902 5905 5907 5907 5905 5906 5906 5907 5908 5910 5911 5910 5910 5908 5907 5907 5906 5903 5903 5904 5903
5907 5909 5909 5905 5902 5898 5896 5897 5896 5893 5894 5899 5900 5899 5895 5896 5897 5897 5898 5897 5898 5897 5898 5899 5901 5903 5904 5904 5904 5907 5909 5907 5907 5908 5909 5910 5911 5912 5913 5913 5911 5910 5909 5910 5909 5907 5906 5906 5906
5905 5904 5911 5904 5907 5901 5900 5900 5899 5897 5891 5896 5900 5899 5897 5898 5899 5899 5899 5899 5900 5899 5900 5901 5902 5903 5904 5905 5908 5909 5909 5908 5909 5910 5911 5912 5913 5914 5914 5913 5911 5911 5910 5911 5912 5910 5909 5909 5908
5909 5902 5908 5910 5908 5903 5903 5904 5901 5895 5895 5893 5897 5897 5899 5899 5900 5900 5900 5901 5901 5902 5903 5903 5904 5904 5906 5908 5909 5909 5910 5911 5911 5911 5913 5913 5915 5915 5915 5913 5912 5912 5912 5913 5913 5912 5910 5909 5909
5915 5906 5911 5914 5909 5906 5902 5905 5904 5898 5898 5895 5895 5898 5898 5898 5900 5902 5902 5903 5903 5904 5904 5905 5906 5907 5908 5909 5910 5911 5912 5912 5913 5914 5914 5915 5916 5916 5915 5914 5914 5914 5913 5914 5914 5913 5912 5910 5909
5913 5913 5915 5916 5914 5906 5907 5902 5900 5903 5902 5900 5898 5898 5897 5897 5899 5902 5903 5904 5905 5905 5905 5906 5907 5908 5909 5910 5911 5913 5913 5913 5915 5915 5916 5916 5917 5917 5915 5915 5915 5916 5916 5915 5915 5915 5914 5912 5910
5911 5918 5915 5918 5915 5913 5908 5904 5903 5903 5905 5902 5900 5900 5899 5897 5898 5900 5902 5904 5904 5906 5906 5908 5909 5909 5910 5911 5913 5914 5914 5915 5915 5915 5916 5917 5917 5917 5917 5916 5916 5917 5917 5917 5917 5916 5915 5913 5912
5920 5919 5916 5919 5918 5915 5914 5912 5909 5907 5907 5906 5904 5903 5901 5900 5899 5899 5903 5903 5904 5905 5906 5907 5909 5910 5911 5912 5914 5915 5915 5915 5915 5916 5916 5916 5917 5917 5916 5916 5916 5916 5917 5918 5918 5917 5916 5914 5912
5930 5928 5924 5923 5919 5918 5918 5916 5914 5909 5906 5904 5905 5903 5902 5901 5900 5899 5903 5902 5904 5905 5905 5907 5909 5911 5912 5913 5914 5915 5915 5915 5915 5915 5915 5915 5915 5915 5917 5918 5918 5918 5917 5917 5918 5918 5917 5915 5913
5931 5928 5928 5925 5923 5921 5920 5919 5914 5915 5911 5910 5908 5906 5903 5902 5901 5900 5900 5904 5904 5905 5906 5908 5909 5910 5911 5912 5914 5915 5915 5915 5915 5915 5916 5916 5916 5915 5915 5917 5918 5919 5919 5917 5916 5917 5917 5916 5914
5933 5929 5929 5930 5927 5924 5922 5918 5914 5914 5912 5911 5909 5906 5904 5902 5901 5902 5900 5904 5904 5905 5907 5907 5909 5910 5912 5912 5914 5915 5914 5914 5917 5916 5914 5914 5915 5915 5915 5915 5914 5916 5918 5918 5915 5916 5916 5915 5912
5932 5931 5927 5930 5929 5927 5924 5922 5920 5917 5916 5913 5911 5908 5906 5903 5901 5901 5901 5900 5902 5905 5906 5907 5909 5909 5911 5911 5913 5914 5914 5914 5915 5916 5915 5915 5916 5916 5916 5915 5914 5914 5915 5916 5916 5914 5914 5913 5910
5931 5931 5928 5931 5929 5927 5926 5925 5924 5920 5916 5914 5913 5911 5908 5906 5904 5902 5902 5901 5900 5902 5904 5905 5907 5908 5909 5911 5912 5914 5913 5915 5914 5915 5916 5917 5918 5918 5917 5917 5915 5913 5913 5913 5912 5911 5911 5912 5910
5930 5933 5930 5927 5928 5926 5926 5927 5926 5925 5920 5915 5915 5913 5911 5908 5905 5903 5902 5901 5901 5901 5903 5904 5906 5907 5908 5909 5912 5913 5913 5914 5915 5914 5916 5914 5914 5915 5916 5915 5914 5913 5912 5911 5909 5908 5911 5910 5908
5928 5931 5931 5928 5926 5928 5925 5927 5927 5925 5921 5917 5917 5916 5913 5910 5906 5905 5903 5902 5901 5901 5903 5903 5904 5906 5907 5908 5909 5912 5912 5912 5911 5913 5913 5913 5913 5915 5914 5912 5910 5911 5913 5911 5906 5907 5909 5908 5908
5925 5929 5928 5927 5928 5927 5927 5929 5927 5926 5923 5921 5918 5917 5915 5911 5908 5907 5905 5904 5904 5903 5903 5906 5905 5906 5906 5907 5909 5910 5911 5909 5911 5912 5911 5912 5915 5914 5911 5909 5909 5911 5913 5910 5904 5905 5906 5908 5907
5921 5925 5922 5917 5917 5922 5928 5930 5927 5928 5927 5924 5919 5918 5916 5913 5911 5909 5908 5907 5905 5904 5904 5905 5906 5906 5907 5908 5909 5909 5909 5908 5909 5914 5917 5916 5914 5912 5909 5909 5907 5910 5908 5910 5905 5903 5904 5906 5905
5918 5921 5923 5917 5916 5921 5927 5928 5926 5927 5927 5924 5920 5920 5918 5916 5914 5912 5910 5909 5908 5906 5906 5906 5906 5906 5907 5907 5907 5907 5909 5908 5911 5912 5914 5909 5910 5910 5907 5906 5906 5908 5908 5906 5903 5902 5902 5903 5903
5916 5917 5918 5921 5914 5920 5925 5927 5926 5925 5924 5922 5920 5919 5920 5919 5917 5915 5912 5912 5910 5910 5908 5908 5908 5907 5907 5907 5907 5908 5909 5909 5910 5911 5912 5911 5911 5906 5907 5907 5905 5905 5905 5902 5902 5901 5901 5901 5901
5916 5920 5917 5918 5921 5922 5926 5925 5920 5919 5919 5920 5921 5923 5920 5920 5919 5917 5913 5912 5912 5911 5912 5912 5910 5909 5908 5907 5908 5908 5908 5908 5910 5909 5909 5910 5908 5909 5908 5906 5906 5906 5906 5902 5901 5900 5901 5901 5901
5914 5918 5921 5915 5913 5922 5924 5923 5913 5913 5916 5921 5917 5919 5917 5916 5919 5917 5915 5912 5911 5911 5912 5913 5912 5912 5911 5910 5910 5909 5909 5908 5909 5910 5911 5911 5912 5910 5908 5907 5907 5906 5904 5901 5900 5901 5901 5900 5900
5913 5916 5918 5920 5920 5919 5921 5921 5921 5916 5916 5917 5907 5911 5910 5909 5918 5915 5913 5914 5911 5911 5912 5912 5912 5912 5911 5910 5910 5909 5909 5910 5910 5910 5910 5911 5909 5908 5906 5906 5904 5900 5898 5899 5900 5900 5900 5900 5899
5908 5910 5911 5912 5912 5914 5917 5917 5917 5918 5916 5915 5912 5912 5914 5911 5916 5915 5912 5913 5912 5910 5911 5912 5911 5912 5911 5911 5909 5908 5910 5908 5906 5907 5906 5905 5906 5904 5903 5902 5899 5898 5897 5898 5899 5898 5898 5898 5898
5903 5905 5906 5908 5909 5909 5913 5915 5914 5914 5913 5913 5914 5911 5911 5912 5910 5909 5908 5912 5912 5911 5910 5911 5911 5910 5910 5909 5907 5906 5907 5904 5907 5908 5906 5904 5904 5904 5903 5901 5898 5898 5898 5896 5895 5896 5896 5896 5897
5900 5902 5903 5905 5906 5908 5911 5912 5911 5912 5911 5910 5913 5912 5906 5906 5907 5907 5905 5909 5910 5911 5910 5910 5910 5909 5907 5906 5904 5904 5904 5902 5903 5905 5904 5902 5902 5903 5901 5900 5899 5898 5897 5894 5892 5892 5894 5894 5894
5897 5898 5899 5900 5902 5905 5908 5906 5905 5906 5906 5906 5902 5903 5898 5898 5898 5905 5904 5907 5907 5909 5909 5909 5908 5906 5905 5902 5902 5901 5901 5900 5900 5899 5899 5899 5899 5899 5900 5899 5896 5896 5897 5893 5891 5890 5891 5892 5891
5894 5894 5897 5898 5900 5900 5904 5904 5902 5903 5904 5900 5890 5889 5889 5893 5881 5884 5899 5906 5904 5909 5908 5907 5906 5905 5904 5901 5900 5899 5898 5898 5898 5897 5897 5898 5898 5897 5898 5895 5894 5894 5893 5892 5890 5889 5888 5888 5887
5891 5894 5892 5895 5898 5899 5901 5902 5902 5899 5900 5894 5889 5884 5866 5884 5892 5900 5899 5902 5903 5905 5907 5906 5905 5904 5902 5900 5898 5897 5895 5893 5893 5894 5893 5893 5893 5895 5893 5891 5890 5891 5890 5889 5888 5886 5885 5884 5884
5889 5890 5890 5893 5895 5895 5897 5899 5896 5896 5898 5893 5892 5888 5883 5893 5897 5893 5898 5897 5900 5904 5906 5903 5903 5902 5900 5899 5895 5893 5892 5889 5887 5887 5887 5886 5887 5886 5885 5885 5886 5886 5885 5885 5884 5883 5883 5881 5880
5888 5888 5889 5891 5895 5894 5897 5895 5890 5891 5891 5889 5882 5883 5886 5892 5892 5897 5897 5893 5901 5904 5903 5901 5901 5900 5898 5896 5894 5890 5887 5885 5882 5879 5881 5880 5878 5877 5878 5879 5879 5881 5880 5880 5881 5880 5879 5878 5876